Location: McFarlands Corners
(41.4117°N, 81.3382°W)
Time: 05:12:42
(UTC+00:00)

Tiros 1 - Pass Details

Date: 17 February 2026
Orbit: 618 x 649 km, 48.4° (Epoch: 5 March)

Event Time Altitude Azimuth Distance (km) Brightness Sun altitude
Rises 17:54:52 0° 294° (WNW) 2,897 10.3 36.7°
Reaches altitude 10° 17:57:19 10° 302° (WNW) 1,986 9.5 36.6°
Maximum altitude 18:01:35 38° 11° (N) 943 7.9 36.6°
Drops below altitude 10° 18:05:51 10° 81° (E) 1,979 9.6 36.4°
Sets 18:08:17 0° 89° (E) 2,884 10.4 36.4°
